Location: Mason Neck State Park
(38.6428°N, 77.1981°W)
Time: 04:37:30
(UTC-04:00)

Daily predictions for brighter satellites

Satellite Brightness Start Highest point End
(mag) Time Altitude Azimuth Time Altitude Azimuth Time Altitude Azimuth
Cosmos 2239 Rocket 4.4 00:01:48 10° N 00:07:57 69° E 00:08:02 69° E
CZ-2C R/B 3.4 00:03:11 10° NNE 00:07:39 43° ENE 00:07:39 43° ENE
Cosmos 1821 Rocket 3.9 00:09:05 10° N 00:15:24 78° E 00:15:31 77° E
Cosmos 2360 4.2 00:10:18 10° NNW 00:15:40 79° NNW 00:15:40 79° NNW
H-2A R/B 4.3 00:18:44 17° W 00:18:44 17° W 00:21:16 10° NW
Cosmos 2251 Rocket 4.4 00:22:11 42° ENE 00:22:11 42° ENE 00:26:03 10° NNE
Cosmos 1697 Rocket 3.6 00:17:49 10° NW 00:22:23 37° W 00:22:23 37° W
SL-16 R/B 2.9 00:20:19 10° N 00:25:45 45° ENE 00:25:49 44° ENE
Cosmos 1953 4.1 00:24:41 10° NNW 00:26:58 31° NNW 00:26:58 31° NNW
USA 267 3.6 00:26:00 10° NE 00:32:25 61° NW 00:35:59 28° WSW
Meteor 2-5 Rocket 4.2 00:36:55 56° ENE 00:36:55 56° ENE 00:42:09 10° NNE
Cosmos 1605 Rocket 4.1 00:31:54 10° N 00:37:46 61° ENE 00:37:46 61° ENE
ALOS 2 3.8 00:42:00 40° N 00:42:00 40° N 00:44:51 10° N
NOSS 3-1 (C) 4.3 00:34:18 10° NNW 00:41:53 63° NE 00:44:20 46° ESE
SeaSat 1 3.0 00:43:22 55° NNW 00:43:22 55° NNW 00:47:13 10° NNW
USA 32 4.5 00:51:52 59° NNE 00:51:52 59° NNE 00:56:09 10° N
Lacrosse 5 rocket 3.4 00:51:02 10° NNW 00:54:58 26° NE 00:55:36 25° NE
ATLAS CENTAUR R/B 3.7 00:57:55 10° NNW 00:59:14 20° N 00:59:14 20° N
USA 234 3.8 01:02:44 33° E 01:05:36 55° NE 01:11:57 10° NW
USA 229 DEB 4.2 00:59:45 10° NW 01:06:04 47° WSW 01:06:04 47° WSW
USA 229 4.2 00:59:51 10° NW 01:06:10 47° WSW 01:06:10 47° WSW
Meteor 2-15 4.4 01:07:15 79° NNE 01:07:15 79° NNE 01:12:59 10° N
Cosmos 2360 Rocket 3.1 01:03:59 10° N 01:09:19 40° ENE 01:09:45 40° ENE
Cosmos 1980 Rocket 3.8 01:05:34 10° NW 01:08:49 23° W 01:08:49 23° W
Lacrosse 5 2.7 01:14:08 45° NE 01:14:08 45° NE 01:17:39 10° NE
CZ-2C R/B 4.0 01:13:35 42° WNW 01:13:35 42° WNW 01:17:57 10° NNW
NOSS 3-1 (A) 4.1 01:05:55 10° NNW 01:13:37 73° NE 01:15:55 51° ESE
Meteor 1-16 Rocket 4.5 01:09:55 10° NNW 01:14:23 61° NNW 01:14:23 61° NNW
Cosmos 2322 Rocket 2.7 01:14:05 10° NNW 01:18:37 53° WNW 01:18:37 53° WNW
H-2A R/B 4.4 01:16:54 10° NNE 01:19:07 26° NE 01:19:07 26° NE
Cosmos 1459 Rocket 4.4 01:15:17 10° N 01:21:30 54° E 01:21:54 53° E
Meteor 1-24 Rocket 3.8 01:25:08 79° N 01:25:08 79° N 01:30:48 10° N
Meteor 2-15 Rocket 4.4 01:28:37 75° WNW 01:28:37 75° WNW 01:34:29 10° N
Cosmos 1802 Rocket 4.4 01:23:05 10° N 01:29:12 52° E 01:29:38 51° E
Cosmos 2100 Rocket 3.9 01:30:49 10° N 01:36:59 77° E 01:37:00 77° E
Cosmos 2016 Rocket 4.4 01:34:03 10° N 01:40:17 53° E 01:41:00 51° ESE
Cosmos 2221 3.8 01:41:31 10° N 01:44:16 38° NNE 01:44:16 38° NNE
Cosmos 2061 Rocket 3.9 01:40:24 10° N 01:46:38 77° E 01:46:49 77° ESE
CZ-2C R/B 4.4 01:44:12 10° NNW 01:48:28 23° WNW 01:49:10 22° WNW
Cosmos 2219 Rocket 4.0 01:49:39 10° N 01:54:21 26° ENE 01:57:56 15° ESE
Cosmos 1674 4.5 02:05:00 31° NNE 02:05:00 31° NNE 02:07:09 10° N
Cosmos 2123 Rocket 4.0 02:03:10 62° ESE 02:03:38 65° E 02:09:45 10° NNE
Cosmos 1190 Rocket 4.5 02:06:11 53° E 02:06:11 53° E 02:10:54 10° NNE
Meteor 2-17 Rocket 4.4 02:00:52 10° NNW 02:06:53 72° W 02:06:53 72° W
Cosmos 1992 Rocket 4.2 02:02:03 10° NNW 02:06:39 69° N 02:06:39 69° N
Cosmos 2237 Rocket 4.5 02:05:18 10° N 02:09:22 20° NE 02:13:25 10° E
SL-16 R/B 3.9 02:05:06 10° NW 02:07:40 20° WNW 02:07:40 20° WNW
Meteor 1-21 Rocket 4.2 02:13:19 86° SSE 02:13:26 88° ESE 02:19:22 10° N
Cosmos 1340 Rocket 4.4 02:19:09 30° NNW 02:19:09 30° NNW 02:21:23 10° N
Cosmos 2228 Rocket 4.3 02:15:27 10° N 02:19:35 36° ENE 02:19:39 36° E
Cosmos 1300 4.4 02:19:20 10° NNE 02:22:08 30° ENE 02:22:08 30° ENE
Cosmos 2227 Rocket 3.4 02:24:40 29° ESE 02:25:18 29° ESE 02:30:08 10° NE
ATLAS 3B CENTAUR R/B 4.2 02:04:32 10° WSW 02:25:53 49° S 02:33:47 10° ESE
Cosmos 1726 3.7 02:25:23 10° N 02:27:56 35° NNE 02:27:56 35° NNE
Cosmos 1242 Rocket 4.4 02:25:53 10° N 02:27:49 29° N 02:27:49 29° N
Cosmos 2322 4.3 02:26:43 10° NW 02:31:06 43° WNW 02:31:06 43° WNW
Cosmos 2237 4.2 02:27:17 10° NNW 02:32:34 66° W 02:32:34 66° W
Cosmos 1725 Rocket 3.9 02:26:56 10° N 02:33:17 84° W 02:34:10 68° S
Meteor 2-2 Rocket 4.4 02:28:32 10° N 02:34:08 65° E 02:35:11 54° SE
Lacrosse 5 rocket 3.7 02:30:00 10° NW 02:31:15 18° WNW 02:31:15 18° WNW
SL-08 R/B 4.5 02:34:32 10° NNW 02:40:33 61° W 02:40:57 59° WSW
ERBS 4.3 02:46:17 28° NE 02:46:17 28° NE 02:48:02 10° NE
Cosmos 2219 3.3 02:44:22 57° W 02:44:51 59° WNW 02:50:25 10° NNE
COSMOS 2428 2.6 02:40:57 10° NNW 02:46:41 71° WSW 02:46:53 70° SW
USA 234 3.9 02:50:01 37° W 02:50:01 37° W 02:54:48 10° WNW
Meteor 2-10 4.2 02:46:25 10° N 02:51:30 66° E 02:52:36 52° SE
Cosmos 2360 Rocket 3.6 02:48:25 10° NW 02:51:29 23° WNW 02:51:29 23° WNW
Cosmos 2082 4.3 02:52:56 39° SE 02:54:06 44° ESE 02:59:25 10° NE
Resurs 1-4 Rocket 3.3 02:50:24 10° NNE 02:55:12 33° E 02:57:03 26° SE
Lacrosse 5 4.0 02:53:18 13° WNW 02:56:11 20° NNW 02:59:51 10° NNE
Cosmos 2333 4.1 02:50:45 10° NNW 02:56:25 65° WSW 02:56:43 64° SW
ISS -0.8 02:56:24 10° NNW 02:58:41 17° NNE 03:00:59 10° ENE
NOSS 2-1 (D) 3.9 03:00:57 48° E 03:00:57 48° E 03:04:23 10° NE
NOSS 2-1 (C) 4.0 03:01:06 47° E 03:01:06 47° E 03:04:30 10° NE
Cosmos 1140 Rocket 3.5 03:01:22 60° SSE 03:02:08 70° ESE 03:07:20 10° NNE
NOSS 0 Rocket 4.1 02:57:25 10° NNW 03:03:38 73° ENE 03:07:52 22° SSE
Cosmos 1500 Rocket 3.4 03:04:07 88° NNE 03:04:07 88° NNE 03:08:32 10° N
ATLAS 2AS CENTAUR R/B 2.9 02:56:51 10° NNW 03:04:54 89° ENE 03:12:17 10° SSE
Cosmos 614 Rocket 4.2 03:05:04 50° SSE 03:06:06 60° ESE 03:11:15 10° NNE
Cosmos 1455 4.4 03:02:59 10° NNE 03:06:07 23° ENE 03:08:03 16° ESE
CZ-2D R/B 3.0 03:01:21 10° NNE 03:06:16 41° E 03:08:08 30° SE
Aureole 2 Rocket 3.9 03:04:11 10° N 03:08:01 42° ENE 03:09:38 28° ESE
IRS-P3 Rocket 4.5 03:03:48 10° N 03:09:03 78° WNW 03:09:55 61° SW
Helios 1A Rocket 4.3 03:05:49 10° N 03:09:02 29° WNW 03:09:02 29° WNW
NOSS 3-3 (A) 4.0 03:08:46 50° SW 03:10:28 75° NW 03:17:07 10° NNE
NOSS 3-3 (C) 4.0 03:08:51 50° SW 03:10:34 75° NW 03:17:13 10° NNE
ADEOS Rocket 3.8 03:03:41 10° NNE 03:11:07 66° ESE 03:15:15 30° S
SL-16 R/B 2.9 03:09:44 18° SSE 03:14:20 62° ENE 03:20:26 10° N
Meteor 2-12 Rocket 4.3 03:08:10 10° N 03:14:21 87° W 03:16:40 41° S
OAO 3 Copernicus 4.4 03:15:12 56° SSE 03:15:12 56° SSE 03:19:51 10° ESE
Cosmos 1703 3.4 03:18:27 61° ESE 03:18:39 63° E 03:22:33 10° NNE
Cosmos 2333 Rocket 2.1 03:13:59 10° NNW 03:19:43 81° WSW 03:22:07 36° SSE
Cosmos 2058 2.7 03:21:42 82° SW 03:21:52 86° W 03:25:59 10° N
SL-08 R/B 3.4 03:21:47 57° SW 03:22:26 64° WSW 03:27:23 10° NNW
CBERS-1 4.1 03:17:48 10° N 03:22:51 62° WNW 03:23:53 51° WSW
IRS-1C 4.0 03:17:45 10° N 03:23:07 81° WNW 03:24:36 49° SSW
NOSS 2-1 (E) 3.1 03:23:15 85° SSE 03:23:19 87° ESE 03:27:31 10° NE
Cosmos 1743 Rocket 4.3 03:24:58 37° WNW 03:24:58 37° WNW 03:29:04 10° N
Cosmos 1515 Rocket 3.8 03:20:52 10° NNW 03:25:03 51° W 03:25:03 51° W
SL-14 R/B 4.4 03:27:06 33° WNW 03:27:06 33° WNW 03:30:26 10° NNW
Cosmos 1954 Rocket 4.3 03:27:32 44° WSW 03:28:41 53° WNW 03:33:50 10° N
UNK 3.9 03:27:05 33° SSE 03:29:06 73° ENE 03:33:42 10° N
ARIANE 5 R/B 2.6 03:26:35 10° NNE 03:31:41 68° ESE 03:33:41 36° S
Cosmos 2297 Rocket 2.1 03:29:46 43° SSW 03:31:41 86° ESE 03:37:22 10° NNE
GPS 2-04 Rocket1 3.0 03:33:55 51° SSE 03:33:55 51° SSE 03:37:33 10° ESE
AQUA 4.1 03:29:21 10° N 03:33:57 51° WNW 03:34:52 44° WSW
Cosmos 1238 4.5 03:33:46 73° SSE 03:34:04 84° E 03:37:23 10° N
Cosmos 1980 3.6 03:28:44 10° NNW 03:34:26 81° WSW 03:38:13 22° SSE
Cosmos 1900 4.4 03:33:12 46° S 03:34:35 70° ESE 03:39:34 10° NE
Cosmos 1626 1.9 03:35:14 76° WSW 03:35:23 78° W 03:39:07 10° N
Cosmos 2219 Rocket 2.5 03:33:06 10° NW 03:38:28 44° WSW 03:39:34 40° SW
UNKNOWN OBJECT B 4.1 03:35:21 10° NNE 03:39:05 36° E 03:40:55 23° SSE
ERS-1 4.5 03:41:03 10° N 03:46:09 71° WNW 03:48:10 37° SSW
Cosmos 1633 Rocket 4.1 03:44:55 18° SSE 03:47:43 41° E 03:51:49 10° NNE
Cosmos 2034 Rocket 4.1 03:42:32 10° N 03:48:55 77° E 03:55:04 11° S
Lacrosse 4 Rocket 2.9 03:47:15 20° SSE 03:49:09 29° ESE 03:52:46 10° NE
Sich 1 3.6 03:49:35 24° SSE 03:52:04 56° E 03:56:22 10° NNE
SL-16 R/B 2.9 03:47:37 10° NNW 03:53:13 56° ENE 03:58:46 10° SE
Cosmos 2237 Rocket 2.2 03:48:19 10° NNW 03:53:51 60° WSW 03:57:43 20° S
CZ-2D R/B 3.9 03:56:52 10° NNE 04:00:51 58° E 04:03:19 22° S
MOS 1 Rocket 4.0 03:55:48 10° NNE 04:00:52 59° E 04:05:09 16° S
Cosmos 2151 4.3 04:01:28 23° W 04:01:59 24° WNW 04:05:25 10° NNW
Tsikada Rocket 4.1 03:57:26 18° S 04:02:23 80° E 04:08:48 10° N
Spot 4 Rocket 4.4 03:58:30 10° N 04:03:26 48° WNW 04:05:44 29° SW
DELTA 2 R/B (1) 3.6 04:03:06 29° SW 04:05:56 68° SSE 04:11:27 10° E
Cosmos 2227 Rocket 3.0 04:06:29 24° WSW 04:09:11 36° WNW 04:14:25 10° N
Cosmos 2208 Rocket 3.9 04:04:23 10° NNW 04:09:35 75° WSW 04:14:49 10° S
Cosmos 1151 Rocket 4.4 04:07:11 10° NW 04:10:27 21° W 04:10:40 21° W
VEP-3 4.2 04:03:47 10° WSW 04:12:37 22° SSW 04:17:18 10° SSE
Cosmos 2242 Rocket 4.4 04:13:15 10° N 04:17:39 53° E 04:22:03 10° SSE
IRS-1D 4.3 04:14:37 10° N 04:19:34 39° WNW 04:22:28 22° SW
Cosmos 468 Rocket 4.3 04:18:35 10° NNW 04:23:47 67° ENE 04:28:53 10° SSE
Cosmos 1707 Rocket 3.7 04:21:24 10° NNW 04:25:40 55° W 04:29:06 15° SSW
BREEZE M DEB (TANK) 3.9 04:26:58 16° S 04:28:20 20° SE 04:30:11 10° E
CZ-4B R/B 4.4 04:28:56 10° NNE 04:33:03 37° E 04:36:59 10° SSE
Cosmos 2263 Rocket 4.5 04:30:32 10° SE 04:34:23 19° E 04:38:15 10° NE
Resurs 1-4 Rocket 3.2 04:30:23 10° N 04:34:54 29° WNW 04:38:08 16° WSW
ISS -4.0 04:32:15 10° NW 04:35:31 77° SW 04:38:47 10° SE
Cosmos 1666 Rocket 4.2 04:35:52 19° SW 04:38:36 40° WNW 04:42:48 10° N
BREEZE-M R/B 3.9 04:33:20 16° SW 04:38:54 53° SE 04:42:33 10° ENE
Cosmos 1455 3.7 04:38:46 10° NW 04:41:39 20° W 04:43:00 17° WSW
Cosmos 1869 3.8 04:38:26 10° NNW 04:42:14 41° W 04:45:41 12° SSW
Cosmos 1862 Rocket 3.9 04:39:53 10° N 04:44:12 66° E 04:48:29 10° SSE
Cosmos 1814 Rocket 4.3 04:39:26 10° NNW 04:44:48 75° ENE 04:50:09 10° SSE
CZ-2D R/B 3.5 04:42:02 10° NNW 04:46:04 23° WNW 04:49:29 13° WSW
ADEOS II 2.6 04:41:56 10° NNE 04:47:09 59° E 04:52:19 10° S
Cosmos 1933 Rocket 3.6 04:44:00 10° S 04:48:28 89° ENE 04:52:58 10° N
Cosmos 1763 Rocket 4.1 04:44:23 10° NNW 04:49:37 62° ENE 04:54:43 10° SSE
ATLAS 2AS CENTAUR R/B 4.2 04:50:02 10° WNW 04:54:45 17° WSW 04:59:15 10° SW
NOSS 3-4 (A) 3.9 04:49:10 10° NW 04:56:18 82° WSW 05:03:53 10° SSE
NOSS 3-4 (C) 3.9 04:49:16 10° NW 04:56:24 83° WSW 05:04:00 10° SSE
Cosmos 1634 Rocket 4.0 04:51:17 10° N 04:57:29 79° W 05:03:37 10° S
Landsat 4 3.6 04:54:28 10° S 04:58:14 81° WSW 05:02:04 10° NNW
SL-16 R/B 3.9 04:54:50 12° SW 04:58:22 19° W 05:02:35 10° NW
Cosmos 2279 Rocket 4.5 04:55:21 10° N 05:01:32 65° E 05:07:42 10° SSE
USA 161 2.4 05:01:52 15° WSW 05:02:24 16° W 05:03:47 10° NW
PSLV R/B 3.8 04:59:19 10° N 05:03:21 76° WNW 05:07:16 10° SSW
Okean O Rocket 1.7 04:59:50 10° NNE 05:04:13 81° ESE 05:08:32 10° S
USA 215 4.1 04:59:07 10° ENE 05:05:20 44° SE 05:11:30 10° SSW
Meteor 2-10 Rocket 3.4 05:01:03 10° N 05:06:04 88° W 05:11:06 10° S
GP-B 3.1 05:02:38 10° N 05:07:06 87° W 05:11:33 10° S
ATLAS 3B CENTAUR R/B 3.5 05:01:33 10° W 05:09:50 27° SSW 05:13:47 10° SSE
ARIANE 5 R/B 4.4 05:07:34 10° NNW 05:10:10 14° WNW 05:12:45 10° W
GPS 2-04 Rocket1 3.7 05:09:15 10° W 05:12:58 31° SSW 05:16:46 10° SE
Cosmos 1315 Rocket 3.6 05:10:21 10° S 05:14:19 55° E 05:18:16 10° NNE
SL-24 R/B 4.5 05:11:07 10° N 05:15:43 80° WNW 05:21:05 10° SSW
Cosmos 1603 3.7 05:10:04 10° NNW 05:15:49 86° WSW 05:21:29 10° SSE
Cosmos 2297 Rocket 4.2 05:13:29 10° W 05:16:30 14° NW 05:19:31 10° NNW
